Time,TemperatureF,DewpointF,PressureIn,WindDirection,WindDirectionDegrees,WindSpeedMPH,WindSpeedGustMPH,Humidity,HourlyPrecipIn,Conditions,Clouds,dailyrainin,SoftwareType,DateUTC
2013-08-05 00:04:00,64.2,57.5,30.03,SW,225,0.0,0.0,79,0.00,,,0.00,WUHU216HW,2013-08-05 04:04:00,
2013-08-05 00:09:00,64.2,57.5,30.03,SW,225,0.0,0.0,79,0.00,,,0.00,WUHU216HW,2013-08-05 04:09:00,
2013-08-05 00:14:00,64.0,57.3,30.03,SW,225,0.0,0.0,79,0.00,,,0.00,WUHU216HW,2013-08-05 04:14:00,
2013-08-05 00:19:00,64.0,57.3,30.03,SW,225,0.0,0.0,79,0.00,,,0.00,WUHU216HW,2013-08-05 04:19:00,
2013-08-05 00:24:00,63.8,57.2,30.03,SW,225,0.0,0.0,79,0.00,,,0.00,WUHU216HW,2013-08-05 04:24:00,
2013-08-05 00:29:00,63.6,57.3,30.03,SW,225,0.0,0.0,80,0.00,,,0.00,WUHU216HW,2013-08-05 04:29:00,
2013-08-05 00:34:00,63.6,57.3,30.03,SW,225,0.0,0.0,80,0.00,,,0.00,WUHU216HW,2013-08-05 04:34:00,
2013-08-05 00:39:00,63.5,56.8,30.03,SW,225,0.0,0.0,79,0.00,,,0.00,WUHU216HW,2013-08-05 04:39:00,
2013-08-05 00:44:00,63.3,56.6,30.03,SW,225,0.0,0.0,79,0.00,,,0.00,WUHU216HW,2013-08-05 04:44:00,
2013-08-05 00:49:00,63.1,56.8,30.02,SW,225,0.0,0.0,80,0.00,,,0.00,WUHU216HW,2013-08-05 04:49:00,
2013-08-05 00:54:00,63.1,56.8,30.03,SW,225,0.0,0.0,80,0.00,,,0.00,WUHU216HW,2013-08-05 04:54:00,
2013-08-05 00:59:00,62.9,56.6,30.03,SW,225,0.0,0.0,80,0.00,,,0.00,WUHU216HW,2013-08-05 04:59:00,
2013-08-05 01:04:00,62.7,56.4,30.03,SW,225,0.0,0.0,80,0.00,,,0.00,WUHU216HW,2013-08-05 05:04:00,
2013-08-05 01:09:00,62.7,56.4,30.03,SW,225,0.0,0.0,80,0.00,,,0.00,WUHU216HW,2013-08-05 05:09:00,
2013-08-05 01:14:00,62.7,56.4,30.03,SW,225,0.0,0.0,80,0.00,,,0.00,WUHU216HW,2013-08-05 05:14:00,
2013-08-05 01:19:00,62.4,56.1,30.03,SW,225,0.0,0.0,80,0.00,,,0.00,WUHU216HW,2013-08-05 05:19:00,
2013-08-05 01:24:00,62.4,56.4,30.03,SW,225,0.0,0.0,81,0.00,,,0.00,WUHU216HW,2013-08-05 05:24:00,
2013-08-05 01:29:00,62.4,56.4,30.03,SW,225,0.0,0.0,81,0.00,,,0.00,WUHU216HW,2013-08-05 05:29:00,
2013-08-05 01:34:00,62.4,56.4,30.02,SW,225,0.0,0.0,81,0.00,,,0.00,WUHU216HW,2013-08-05 05:34:00,
2013-08-05 01:39:00,62.2,56.3,30.02,SW,225,0.0,0.0,81,0.00,,,0.00,WUHU216HW,2013-08-05 05:39:00,
2013-08-05 01:44:00,62.2,56.3,30.02,SW,225,0.0,0.0,81,0.00,,,0.00,WUHU216HW,2013-08-05 05:44:00,
2013-08-05 01:49:00,62.0,56.1,30.02,SW,225,0.0,0.0,81,0.00,,,0.00,WUHU216HW,2013-08-05 05:49:00,
2013-08-05 01:54:00,62.0,55.9,30.02,SW,225,0.0,0.0,81,0.00,,,0.00,WUHU216HW,2013-08-05 05:54:00,
2013-08-05 01:59:00,61.8,55.9,30.03,SW,225,0.0,0.0,81,0.00,,,0.00,WUHU216HW,2013-08-05 05:59:00,
2013-08-05 02:04:00,61.7,55.8,30.02,SW,225,0.0,0.0,81,0.00,,,0.00,WUHU216HW,2013-08-05 06:04:00,
2013-08-05 02:09:00,61.5,55.6,30.02,SW,225,0.0,0.0,81,0.00,,,0.00,WUHU216HW,2013-08-05 06:09:00,
2013-08-05 02:14:00,61.3,55.4,30.02,SW,225,0.0,0.0,81,0.00,,,0.00,WUHU216HW,2013-08-05 06:14:00,
2013-08-05 02:19:00,61.3,55.4,30.03,SW,225,0.0,0.0,81,0.00,,,0.00,WUHU216HW,2013-08-05 06:19:00,
2013-08-05 02:25:00,61.3,55.4,30.03,North,0,0.0,0.0,81,0.00,,,0.00,WUHU216HW,2013-08-05 06:25:00,
2013-08-05 02:30:00,61.1,55.3,30.02,SW,225,0.0,0.0,81,0.00,,,0.00,WUHU216HW,2013-08-05 06:30:00,
2013-08-05 02:35:00,61.1,55.3,30.03,SW,225,0.0,0.0,81,0.00,,,0.00,WUHU216HW,2013-08-05 06:35:00,
2013-08-05 02:40:00,60.9,55.1,30.03,SW,225,0.0,0.0,81,0.00,,,0.00,WUHU216HW,2013-08-05 06:40:00,
2013-08-05 02:45:00,60.9,55.1,30.02,SW,225,0.0,0.0,81,0.00,,,0.00,WUHU216HW,2013-08-05 06:45:00,
2013-08-05 02:50:00,60.9,55.1,30.03,SW,225,0.0,0.0,81,0.00,,,0.00,WUHU216HW,2013-08-05 06:50:00,
2013-08-05 02:55:00,60.6,54.8,30.02,SW,225,0.0,0.0,81,0.00,,,0.00,WUHU216HW,2013-08-05 06:55:00,
2013-08-05 03:00:00,60.6,55.1,30.02,SW,225,0.0,0.0,82,0.00,,,0.00,WUHU216HW,2013-08-05 07:00:00,
2013-08-05 03:05:00,60.6,55.1,30.02,SW,225,0.0,0.0,82,0.00,,,0.00,WUHU216HW,2013-08-05 07:05:00,
2013-08-05 03:10:00,60.4,55.1,30.02,SW,225,0.0,0.0,82,0.00,,,0.00,WUHU216HW,2013-08-05 07:10:00,
2013-08-05 03:15:00,60.4,54.9,30.02,SW,225,0.0,0.0,82,0.00,,,0.00,WUHU216HW,2013-08-05 07:15:00,
2013-08-05 03:19:00,60.4,54.9,30.02,SW,225,0.0,0.0,82,0.00,,,0.00,WUHU216HW,2013-08-05 07:19:00,
2013-08-05 03:24:00,60.4,54.9,30.02,SW,225,0.0,0.0,82,0.00,,,0.00,WUHU216HW,2013-08-05 07:24:00,
2013-08-05 03:30:00,60.2,54.7,30.02,SW,225,0.0,0.0,82,0.00,,,0.00,WUHU216HW,2013-08-05 07:30:00,
2013-08-05 03:35:00,60.0,54.6,30.02,SW,225,0.0,0.0,82,0.00,,,0.00,WUHU216HW,2013-08-05 07:35:00,
2013-08-05 03:40:00,60.0,54.6,30.02,SW,225,0.0,0.0,82,0.00,,,0.00,WUHU216HW,2013-08-05 07:40:00,
2013-08-05 03:45:00,60.0,54.6,30.02,SW,225,0.0,0.0,82,0.00,,,0.00,WUHU216HW,2013-08-05 07:45:00,
2013-08-05 03:49:00,59.9,54.4,30.02,SW,225,0.0,0.0,82,0.00,,,0.00,WUHU216HW,2013-08-05 07:49:00,
2013-08-05 03:55:00,59.9,54.4,30.02,SW,225,0.0,0.0,82,0.00,,,0.00,WUHU216HW,2013-08-05 07:55:00,
2013-08-05 04:00:00,59.7,54.2,30.02,SW,225,0.0,0.0,82,0.00,,,0.00,WUHU216HW,2013-08-05 08:00:00,
2013-08-05 04:05:00,59.7,54.2,30.03,SW,225,0.0,0.0,82,0.00,,,0.00,WUHU216HW,2013-08-05 08:05:00,
2013-08-05 04:10:00,59.5,54.0,30.02,SW,225,0.0,0.0,82,0.00,,,0.00,WUHU216HW,2013-08-05 08:10:00,
2013-08-05 04:15:00,59.5,54.0,30.03,SW,225,0.0,0.0,82,0.00,,,0.00,WUHU216HW,2013-08-05 08:15:00,
2013-08-05 04:20:00,59.5,54.0,30.02,SW,225,0.0,0.0,82,0.00,,,0.00,WUHU216HW,2013-08-05 08:20:00,
2013-08-05 04:25:00,59.3,53.8,30.02,SW,225,0.0,0.0,82,0.00,,,0.00,WUHU216HW,2013-08-05 08:25:00,
2013-08-05 04:30:00,59.3,53.8,30.02,SW,225,0.0,0.0,82,0.00,,,0.00,WUHU216HW,2013-08-05 08:30:00,
2013-08-05 04:35:00,59.1,53.7,30.02,SW,225,0.0,0.0,82,0.00,,,0.00,WUHU216HW,2013-08-05 08:35:00,
2013-08-05 04:41:00,59.1,53.7,30.02,SW,225,0.0,0.0,82,0.00,,,0.00,WUHU216HW,2013-08-05 08:41:00,
2013-08-05 04:46:00,58.8,53.3,30.02,SW,225,0.0,0.0,82,0.00,,,0.00,WUHU216HW,2013-08-05 08:46:00,
2013-08-05 04:51:00,58.8,53.3,30.02,SW,225,0.0,0.0,82,0.00,,,0.00,WUHU216HW,2013-08-05 08:51:00,
2013-08-05 04:57:00,58.8,53.3,30.01,SW,225,0.0,0.0,82,0.00,,,0.00,WUHU216HW,2013-08-05 08:57:00,
2013-08-05 05:02:00,58.8,53.3,30.01,SW,225,0.0,0.0,82,0.00,,,0.00,WUHU216HW,2013-08-05 09:02:00,
2013-08-05 05:07:00,58.8,53.3,30.01,SW,225,0.0,0.0,82,0.00,,,0.00,WUHU216HW,2013-08-05 09:07:00,
2013-08-05 05:12:00,58.6,53.1,30.01,SW,225,0.0,0.0,82,0.00,,,0.00,WUHU216HW,2013-08-05 09:12:00,
2013-08-05 05:17:00,58.6,53.1,30.01,SW,225,0.0,0.0,82,0.00,,,0.00,WUHU216HW,2013-08-05 09:17:00,
2013-08-05 05:22:00,58.4,52.9,30.01,SW,225,0.0,0.0,82,0.00,,,0.00,WUHU216HW,2013-08-05 09:22:00,
2013-08-05 05:27:00,58.2,52.8,30.02,SW,225,0.0,0.0,82,0.00,,,0.00,WUHU216HW,2013-08-05 09:27:00,
2013-08-05 05:32:00,58.2,52.8,30.02,SW,225,0.0,0.0,82,0.00,,,0.00,WUHU216HW,2013-08-05 09:32:00,
2013-08-05 05:37:00,58.1,52.6,30.02,SW,225,0.0,0.0,82,0.00,,,0.00,WUHU216HW,2013-08-05 09:37:00,
2013-08-05 05:42:00,58.1,52.9,30.01,SW,225,0.0,0.0,83,0.00,,,0.00,WUHU216HW,2013-08-05 09:42:00,
2013-08-05 05:47:00,58.1,52.9,30.01,SW,225,0.0,0.0,83,0.00,,,0.00,WUHU216HW,2013-08-05 09:47:00,
2013-08-05 05:52:00,57.9,52.7,30.01,SW,225,0.0,0.0,83,0.00,,,0.00,WUHU216HW,2013-08-05 09:52:00,
2013-08-05 05:57:00,57.9,52.7,30.01,SW,225,0.0,0.0,83,0.00,,,0.00,WUHU216HW,2013-08-05 09:57:00,
2013-08-05 06:03:00,57.9,52.7,30.01,SW,225,0.0,0.0,83,0.00,,,0.00,WUHU216HW,2013-08-05 10:03:00,
2013-08-05 06:08:00,57.7,52.5,30.01,SW,225,0.0,0.0,83,0.00,,,0.00,WUHU216HW,2013-08-05 10:08:00,
2013-08-05 06:13:00,57.7,52.5,30.01,SW,225,0.0,0.0,83,0.00,,,0.00,WUHU216HW,2013-08-05 10:13:00,
2013-08-05 06:17:00,57.7,52.5,30.01,SW,225,0.0,0.0,83,0.00,,,0.00,WUHU216HW,2013-08-05 10:17:00,
2013-08-05 06:22:00,57.5,52.4,30.01,SW,225,0.0,0.0,83,0.00,,,0.00,WUHU216HW,2013-08-05 10:22:00,
2013-08-05 06:28:00,57.3,51.9,30.01,SW,225,0.0,0.0,82,0.00,,,0.00,WUHU216HW,2013-08-05 10:28:00,
2013-08-05 06:34:00,57.3,51.9,30.01,SW,225,0.0,0.0,82,0.00,,,0.00,WUHU216HW,2013-08-05 10:34:00,
2013-08-05 06:39:00,57.2,51.7,30.01,SW,225,0.0,0.0,82,0.00,,,0.00,WUHU216HW,2013-08-05 10:39:00,
2013-08-05 06:44:00,57.2,51.7,30.01,SW,225,0.0,0.0,82,0.00,,,0.00,WUHU216HW,2013-08-05 10:44:00,
2013-08-05 06:48:00,57.0,51.8,30.01,SW,225,0.0,0.0,83,0.00,,,0.00,WUHU216HW,2013-08-05 10:48:00,
2013-08-05 06:54:00,57.0,51.8,30.01,SW,225,0.0,0.0,83,0.00,,,0.00,WUHU216HW,2013-08-05 10:54:00,
2013-08-05 06:59:00,57.0,51.8,30.01,SW,225,0.0,0.0,83,0.00,,,0.00,WUHU216HW,2013-08-05 10:59:00,
2013-08-05 07:04:00,57.0,51.8,30.02,SW,225,0.0,0.0,83,0.00,,,0.00,WUHU216HW,2013-08-05 11:04:00,
2013-08-05 07:09:00,57.0,51.8,30.02,SW,225,0.0,0.0,83,0.00,,,0.00,WUHU216HW,2013-08-05 11:09:00,
2013-08-05 07:14:00,57.0,51.8,30.02,SW,225,0.0,0.0,83,0.00,,,0.00,WUHU216HW,2013-08-05 11:14:00,
2013-08-05 07:19:00,56.8,51.6,30.02,SW,225,0.0,0.0,83,0.00,,,0.00,WUHU216HW,2013-08-05 11:19:00,
2013-08-05 07:24:00,56.8,51.6,30.02,SW,225,0.0,0.0,83,0.00,,,0.00,WUHU216HW,2013-08-05 11:24:00,
2013-08-05 07:29:00,56.8,51.6,30.02,SW,225,0.0,0.0,83,0.00,,,0.00,WUHU216HW,2013-08-05 11:29:00,
2013-08-05 07:34:00,57.0,52.1,30.02,SW,225,0.0,0.0,84,0.00,,,0.00,WUHU216HW,2013-08-05 11:34:00,
2013-08-05 07:39:00,57.0,52.1,30.02,SW,225,0.0,0.0,84,0.00,,,0.00,WUHU216HW,2013-08-05 11:39:00,
2013-08-05 07:45:00,57.0,52.1,30.02,SW,225,0.0,0.0,84,0.00,,,0.00,WUHU216HW,2013-08-05 11:45:00,
2013-08-05 07:50:00,57.0,52.1,30.03,SW,225,0.0,0.0,84,0.00,,,0.00,WUHU216HW,2013-08-05 11:50:00,
2013-08-05 07:54:00,57.3,52.5,30.03,SW,225,0.0,0.0,84,0.00,,,0.00,WUHU216HW,2013-08-05 11:54:00,
2013-08-05 08:00:00,57.3,52.5,30.03,SW,225,0.0,0.0,84,0.00,,,0.00,WUHU216HW,2013-08-05 12:00:00,
2013-08-05 08:05:00,57.5,52.7,30.03,SW,225,0.0,0.0,84,0.00,,,0.00,WUHU216HW,2013-08-05 12:05:00,
2013-08-05 08:10:00,57.7,52.9,30.03,SW,225,0.0,0.0,84,0.00,,,0.00,WUHU216HW,2013-08-05 12:10:00,
2013-08-05 08:15:00,57.9,53.4,30.03,SW,225,0.0,0.0,85,0.00,,,0.00,WUHU216HW,2013-08-05 12:15:00,
2013-08-05 08:20:00,58.1,53.6,30.03,SW,225,0.0,0.0,85,0.00,,,0.00,WUHU216HW,2013-08-05 12:20:00,
2013-08-05 08:25:00,58.6,53.9,30.03,SW,225,0.0,0.0,85,0.00,,,0.00,WUHU216HW,2013-08-05 12:25:00,
2013-08-05 08:30:00,58.8,54.3,30.03,SW,225,0.0,0.0,85,0.00,,,0.00,WUHU216HW,2013-08-05 12:30:00,
2013-08-05 08:35:00,58.8,54.3,30.03,SW,225,0.0,0.0,85,0.00,,,0.00,WUHU216HW,2013-08-05 12:35:00,
2013-08-05 08:40:00,59.3,54.8,30.03,SW,225,0.0,0.0,85,0.00,,,0.00,WUHU216HW,2013-08-05 12:40:00,
2013-08-05 08:45:00,59.5,55.0,30.03,SW,225,0.0,0.0,85,0.00,,,0.00,WUHU216HW,2013-08-05 12:45:00,
2013-08-05 08:50:00,59.7,55.2,30.03,SW,225,0.0,0.0,85,0.00,,,0.00,WUHU216HW,2013-08-05 12:50:00,
2013-08-05 08:55:00,60.2,56.0,30.02,West,270,0.0,0.0,86,0.00,,,0.00,WUHU216HW,2013-08-05 12:55:00,
2013-08-05 09:00:00,60.4,56.2,30.02,West,270,0.0,0.0,86,0.00,,,0.00,WUHU216HW,2013-08-05 13:00:00,
2013-08-05 09:05:00,60.9,56.7,30.02,NNE,23,0.0,0.0,86,0.00,,,0.00,WUHU216HW,2013-08-05 13:05:00,
2013-08-05 09:10:00,61.3,57.1,30.02,NE,45,0.0,0.0,86,0.00,,,0.00,WUHU216HW,2013-08-05 13:10:00,
2013-08-05 09:15:00,61.5,57.3,30.02,NE,45,0.0,0.0,86,0.00,,,0.00,WUHU216HW,2013-08-05 13:15:00,
2013-08-05 09:20:00,62.2,57.9,30.02,NE,45,0.0,0.0,86,0.00,,,0.00,WUHU216HW,2013-08-05 13:20:00,
2013-08-05 09:26:00,62.4,58.1,30.01,NE,45,0.0,0.0,86,0.00,,,0.00,WUHU216HW,2013-08-05 13:26:00,
2013-08-05 09:29:00,62.7,58.5,30.02,NE,45,0.0,0.0,86,0.00,,,0.00,WUHU216HW,2013-08-05 13:29:00,
2013-08-05 09:37:00,63.5,59.2,30.01,NE,45,0.0,0.0,86,0.00,,,0.00,WUHU216HW,2013-08-05 13:37:00,
2013-08-05 09:47:00,64.2,59.9,30.01,NE,45,0.0,0.0,86,0.00,,,0.00,WUHU216HW,2013-08-05 13:47:00,
2013-08-05 09:56:00,64.9,60.3,30.01,ESE,113,0.0,0.0,85,0.00,,,0.00,WUHU216HW,2013-08-05 13:56:00,
2013-08-05 10:06:00,65.8,61.1,30.01,ESE,113,0.0,0.0,85,0.00,,,0.00,WUHU216HW,2013-08-05 14:06:00,
2013-08-05 10:16:00,66.3,61.3,30.01,ENE,68,0.0,0.0,84,0.00,,,0.00,WUHU216HW,2013-08-05 14:16:00,
2013-08-05 10:26:00,67.1,61.9,30.01,ESE,113,0.6,2.2,83,0.00,,,0.00,WUHU216HW,2013-08-05 14:26:00,
2013-08-05 10:36:00,67.8,61.8,30.00,SE,135,4.6,4.6,81,0.00,,,0.00,WUHU216HW,2013-08-05 14:36:00,
2013-08-05 10:46:00,68.9,62.1,30.00,ESE,113,0.0,4.6,79,0.00,,,0.00,WUHU216HW,2013-08-05 14:46:00,
2013-08-05 10:56:00,69.6,62.0,30.00,ENE,68,1.1,1.1,77,0.00,,,0.00,WUHU216HW,2013-08-05 14:56:00,
2013-08-05 11:06:00,70.5,61.7,30.00,ESE,113,0.0,5.8,74,0.00,,,0.00,WUHU216HW,2013-08-05 15:06:00,
2013-08-05 11:16:00,71.2,62.1,29.99,SE,135,0.0,2.9,73,0.00,,,0.00,WUHU216HW,2013-08-05 15:16:00,
2013-08-05 11:25:00,71.9,62.6,29.99,SSW,203,0.0,5.3,73,0.00,,,0.00,WUHU216HW,2013-08-05 15:25:00,
2013-08-05 11:35:00,72.5,62.6,29.98,ENE,68,0.6,4.2,71,0.00,,,0.00,WUHU216HW,2013-08-05 15:35:00,
2013-08-05 11:45:00,73.2,62.5,29.98,ENE,68,0.6,4.0,69,0.00,,,0.00,WUHU216HW,2013-08-05 15:45:00,
2013-08-05 11:55:00,73.7,62.2,29.98,South,180,4.2,4.4,67,0.00,,,0.00,WUHU216HW,2013-08-05 15:55:00,
2013-08-05 12:05:00,74.1,61.5,29.98,ESE,113,0.0,5.1,65,0.00,,,0.00,WUHU216HW,2013-08-05 16:05:00,
2013-08-05 12:15:00,74.8,62.6,29.98,ESE,113,3.3,3.3,66,0.00,,,0.00,WUHU216HW,2013-08-05 16:15:00,
2013-08-05 12:25:00,75.3,62.3,29.98,ENE,68,0.0,3.3,64,0.00,,,0.00,WUHU216HW,2013-08-05 16:25:00,
2013-08-05 12:35:00,75.9,62.4,29.98,ENE,68,0.0,0.0,63,0.00,,,0.00,WUHU216HW,2013-08-05 16:35:00,
2013-08-05 12:45:00,76.2,62.7,29.98,NE,45,0.0,6.0,63,0.00,,,0.00,WUHU216HW,2013-08-05 16:45:00,
2013-08-05 12:54:00,76.8,61.8,29.98,SE,135,0.0,0.0,60,0.00,,,0.00,WUHU216HW,2013-08-05 16:54:00,
2013-08-05 13:04:00,77.3,62.8,29.97,East,90,0.0,0.0,61,0.00,,,0.00,WUHU216HW,2013-08-05 17:04:00,
2013-08-05 13:14:00,77.5,62.0,29.97,SSE,158,3.5,3.5,59,0.00,,,0.00,WUHU216HW,2013-08-05 17:14:00,
2013-08-05 13:24:00,78.4,62.4,29.98,East,90,0.0,1.7,58,0.00,,,0.00,WUHU216HW,2013-08-05 17:24:00,
2013-08-05 13:34:00,78.9,61.9,29.98,ENE,68,0.0,6.2,56,0.00,,,0.00,WUHU216HW,2013-08-05 17:34:00,
2013-08-05 13:44:00,79.3,61.8,29.97,SE,135,2.2,2.2,56,0.00,,,0.00,WUHU216HW,2013-08-05 17:44:00,
2013-08-05 13:54:00,79.8,61.7,29.96,SE,135,0.0,1.3,54,0.00,,,0.00,WUHU216HW,2013-08-05 17:54:00,
2013-08-05 14:04:00,80.2,61.5,29.95,South,180,0.0,0.0,53,0.00,,,0.00,WUHU216HW,2013-08-05 18:04:00,
2013-08-05 14:14:00,80.7,61.4,29.96,WSW,248,0.0,1.1,52,0.00,,,0.00,WUHU216HW,2013-08-05 18:14:00,
2013-08-05 14:23:00,81.1,61.7,29.95,ESE,113,0.0,0.0,52,0.00,,,0.00,WUHU216HW,2013-08-05 18:23:00,
2013-08-05 14:33:00,80.7,60.4,29.95,SE,135,3.8,3.8,50,0.00,,,0.00,WUHU216HW,2013-08-05 18:33:00,
2013-08-05 14:43:00,80.4,60.0,29.95,South,180,0.0,0.0,50,0.00,,,0.00,WUHU216HW,2013-08-05 18:43:00,
2013-08-05 14:53:00,80.4,60.6,29.94,SE,135,0.6,0.6,51,0.00,,,0.00,WUHU216HW,2013-08-05 18:53:00,
2013-08-05 15:03:00,79.8,59.6,29.94,SSE,158,0.0,0.6,50,0.00,,,0.00,WUHU216HW,2013-08-05 19:03:00,
2013-08-05 15:13:00,79.8,60.1,29.93,South,180,0.0,0.0,51,0.00,,,0.00,WUHU216HW,2013-08-05 19:13:00,
2013-08-05 15:23:00,79.7,59.9,29.94,West,270,0.0,0.0,51,0.00,,,0.00,WUHU216HW,2013-08-05 19:23:00,
2013-08-05 15:33:00,79.5,60.3,29.93,South,180,0.0,1.5,52,0.00,,,0.00,WUHU216HW,2013-08-05 19:33:00,
2013-08-05 15:43:00,79.5,60.3,29.94,SSE,158,0.0,0.0,51,0.00,,,0.00,WUHU216HW,2013-08-05 19:43:00,
2013-08-05 15:52:00,79.5,60.3,29.93,SSE,158,0.0,0.0,52,0.00,,,0.00,WUHU216HW,2013-08-05 19:52:00,
2013-08-05 16:02:00,79.3,61.2,29.93,SSE,158,0.0,0.0,54,0.00,,,0.00,WUHU216HW,2013-08-05 20:02:00,
2013-08-05 16:12:00,79.1,60.5,29.93,SE,135,0.0,0.0,53,0.00,,,0.00,WUHU216HW,2013-08-05 20:12:00,
2013-08-05 16:22:00,78.9,60.3,29.92,ENE,68,0.0,0.0,53,0.00,,,0.00,WUHU216HW,2013-08-05 20:22:00,
2013-08-05 16:32:00,78.9,59.8,29.92,West,270,0.0,0.0,52,0.00,,,0.00,WUHU216HW,2013-08-05 20:32:00,
2013-08-05 16:42:00,78.9,60.3,29.92,South,180,0.0,0.0,53,0.00,,,0.00,WUHU216HW,2013-08-05 20:42:00,
2013-08-05 16:52:00,78.6,60.5,29.92,SE,135,0.0,0.0,54,0.00,,,0.00,WUHU216HW,2013-08-05 20:52:00,
2013-08-05 17:02:00,78.6,61.0,29.91,SSW,203,0.0,0.0,55,0.00,,,0.00,WUHU216HW,2013-08-05 21:02:00,
2013-08-05 17:12:00,78.6,61.0,29.91,SSW,203,0.0,0.0,55,0.00,,,0.00,WUHU216HW,2013-08-05 21:12:00,
2013-08-05 17:21:00,78.6,61.0,29.91,NW,315,0.0,0.0,55,0.00,,,0.00,WUHU216HW,2013-08-05 21:21:00,
2013-08-05 17:31:00,78.6,61.5,29.90,SSE,158,0.0,0.0,56,0.00,,,0.00,WUHU216HW,2013-08-05 21:31:00,
2013-08-05 17:41:00,78.6,61.5,29.89,ENE,68,0.0,1.3,56,0.00,,,0.00,WUHU216HW,2013-08-05 21:41:00,
2013-08-05 17:51:00,78.8,61.2,29.90,SE,135,0.2,0.2,55,0.00,,,0.00,WUHU216HW,2013-08-05 21:51:00,
2013-08-05 18:01:00,78.6,62.1,29.90,ENE,68,0.0,0.2,57,0.00,,,0.00,WUHU216HW,2013-08-05 22:01:00,
2013-08-05 18:11:00,78.6,61.5,29.89,ESE,113,0.0,0.0,56,0.00,,,0.00,WUHU216HW,2013-08-05 22:11:00,
2013-08-05 18:21:00,78.4,62.9,29.88,ESE,113,0.0,0.0,59,0.00,,,0.00,WUHU216HW,2013-08-05 22:21:00,
2013-08-05 18:31:00,78.0,63.7,29.88,ESE,113,0.0,0.0,61,0.00,,,0.00,WUHU216HW,2013-08-05 22:31:00,
2013-08-05 18:41:00,78.0,64.4,29.87,ESE,113,0.0,0.0,63,0.00,,,0.00,WUHU216HW,2013-08-05 22:41:00,
2013-08-05 18:50:00,77.7,64.0,29.87,ESE,113,0.0,0.0,63,0.00,,,0.00,WUHU216HW,2013-08-05 22:50:00,
2013-08-05 19:00:00,77.5,64.3,29.87,ESE,113,0.0,0.0,64,0.00,,,0.00,WUHU216HW,2013-08-05 23:00:00,
2013-08-05 19:10:00,77.1,64.4,29.87,ESE,113,0.0,0.0,65,0.00,,,0.00,WUHU216HW,2013-08-05 23:10:00,
2013-08-05 19:20:00,76.8,64.5,29.87,ESE,113,0.0,0.0,67,0.00,,,0.00,WUHU216HW,2013-08-05 23:20:00,
2013-08-05 19:30:00,76.8,65.0,29.87,ESE,113,0.0,0.0,67,0.00,,,0.00,WUHU216HW,2013-08-05 23:30:00,
2013-08-05 19:43:00,76.4,65.1,29.86,ESE,113,0.0,0.0,68,0.00,,,0.00,WUHU216HW,2013-08-05 23:43:00,
2013-08-05 19:48:00,76.1,64.7,29.86,ESE,113,0.0,0.0,68,0.00,,,0.00,WUHU216HW,2013-08-05 23:48:00,
2013-08-05 19:53:00,75.9,65.0,29.85,ESE,113,0.0,0.0,69,0.00,,,0.00,WUHU216HW,2013-08-05 23:53:00,
2013-08-05 19:58:00,75.7,64.4,29.85,ESE,113,0.0,0.0,68,0.00,,,0.00,WUHU216HW,2013-08-05 23:58:00,
2013-08-05 20:03:00,75.7,64.4,29.85,ESE,113,0.0,0.0,68,0.00,,,0.00,WUHU216HW,2013-08-06 00:03:00,
2013-08-05 20:08:00,75.5,64.2,29.86,ESE,113,0.0,0.0,68,0.00,,,0.00,WUHU216HW,2013-08-06 00:08:00,
2013-08-05 20:13:00,75.7,64.4,29.86,ESE,113,0.0,0.0,68,0.00,,,0.00,WUHU216HW,2013-08-06 00:13:00,
2013-08-05 20:18:00,75.5,64.2,29.86,ESE,113,0.0,0.0,68,0.00,,,0.00,WUHU216HW,2013-08-06 00:18:00,
2013-08-05 20:23:00,75.5,64.2,29.86,ESE,113,0.0,0.0,68,0.00,,,0.00,WUHU216HW,2013-08-06 00:23:00,
2013-08-05 20:28:00,75.3,64.4,29.86,ESE,113,0.0,0.0,69,0.00,,,0.00,WUHU216HW,2013-08-06 00:28:00,
2013-08-05 20:33:00,75.3,64.4,29.86,ESE,113,0.0,0.0,69,0.00,,,0.00,WUHU216HW,2013-08-06 00:33:00,
2013-08-05 20:39:00,75.0,64.1,29.86,ESE,113,0.0,0.0,70,0.00,,,0.00,WUHU216HW,2013-08-06 00:39:00,
2013-08-05 20:44:00,74.8,64.4,29.87,ESE,113,0.0,0.0,70,0.00,,,0.00,WUHU216HW,2013-08-06 00:44:00,
2013-08-05 20:49:00,74.4,64.1,29.86,ESE,113,0.0,0.0,70,0.00,,,0.00,WUHU216HW,2013-08-06 00:49:00,
2013-08-05 20:55:00,74.1,63.7,29.86,ESE,113,0.0,0.0,70,0.00,,,0.00,WUHU216HW,2013-08-06 00:55:00,
2013-08-05 21:00:00,73.9,63.6,29.85,ESE,113,0.0,0.0,70,0.00,,,0.00,WUHU216HW,2013-08-06 01:00:00,
2013-08-05 21:05:00,73.5,63.6,29.85,ESE,113,0.0,0.0,71,0.00,,,0.00,WUHU216HW,2013-08-06 01:05:00,
2013-08-05 21:10:00,73.4,63.8,29.85,ESE,113,0.0,0.0,72,0.00,,,0.00,WUHU216HW,2013-08-06 01:10:00,
2013-08-05 21:15:00,73.2,64.0,29.85,ESE,113,0.0,0.0,73,0.00,,,0.00,WUHU216HW,2013-08-06 01:15:00,
2013-08-05 21:20:00,73.2,64.0,29.86,ESE,113,0.0,0.0,73,0.00,,,0.00,WUHU216HW,2013-08-06 01:20:00,
2013-08-05 21:25:00,73.0,63.9,29.86,ESE,113,0.0,0.0,73,0.00,,,0.00,WUHU216HW,2013-08-06 01:25:00,
2013-08-05 21:30:00,73.0,63.9,29.87,ESE,113,0.0,0.0,73,0.00,,,0.00,WUHU216HW,2013-08-06 01:30:00,
2013-08-05 21:35:00,73.0,64.2,29.87,ESE,113,0.0,0.0,74,0.00,,,0.00,WUHU216HW,2013-08-06 01:35:00,
2013-08-05 21:40:00,72.8,64.1,29.87,ESE,113,0.0,0.0,74,0.00,,,0.00,WUHU216HW,2013-08-06 01:40:00,
2013-08-05 21:45:00,72.6,63.9,29.86,ESE,113,0.0,0.0,74,0.00,,,0.00,WUHU216HW,2013-08-06 01:45:00,
2013-08-05 21:50:00,72.5,64.1,29.86,ESE,113,0.0,0.0,75,0.00,,,0.00,WUHU216HW,2013-08-06 01:50:00,
2013-08-05 21:55:00,72.3,63.9,29.87,ESE,113,0.0,0.0,75,0.00,,,0.00,WUHU216HW,2013-08-06 01:55:00,
2013-08-05 22:00:00,72.3,63.9,29.87,ESE,113,0.0,0.0,75,0.00,,,0.00,WUHU216HW,2013-08-06 02:00:00,
2013-08-05 22:05:00,72.3,64.3,29.87,ESE,113,0.0,0.0,76,0.00,,,0.00,WUHU216HW,2013-08-06 02:05:00,
2013-08-05 22:11:00,72.1,64.1,29.87,ESE,113,0.0,0.0,76,0.00,,,0.00,WUHU216HW,2013-08-06 02:11:00,
2013-08-05 22:16:00,72.1,64.1,29.88,ESE,113,0.0,0.0,76,0.00,,,0.00,WUHU216HW,2013-08-06 02:16:00,
2013-08-05 22:21:00,72.1,64.1,29.87,ESE,113,0.0,0.0,76,0.00,,,0.00,WUHU216HW,2013-08-06 02:21:00,
2013-08-05 22:26:00,72.1,64.1,29.87,ESE,113,0.0,0.0,76,0.00,,,0.00,WUHU216HW,2013-08-06 02:26:00,
2013-08-05 22:31:00,72.1,64.1,29.87,ESE,113,0.0,0.0,76,0.00,,,0.00,WUHU216HW,2013-08-06 02:31:00,
2013-08-05 22:36:00,71.9,63.9,29.87,ESE,113,0.0,0.0,76,0.00,,,0.00,WUHU216HW,2013-08-06 02:36:00,
2013-08-05 22:41:00,71.7,63.7,29.87,ESE,113,0.0,0.0,76,0.00,,,0.00,WUHU216HW,2013-08-06 02:41:00,
2013-08-05 22:47:00,71.7,64.1,29.87,ESE,113,0.0,0.0,77,0.00,,,0.00,WUHU216HW,2013-08-06 02:47:00,
2013-08-05 22:52:00,71.6,63.9,29.87,ESE,113,0.0,0.0,77,0.00,,,0.00,WUHU216HW,2013-08-06 02:52:00,
2013-08-05 22:57:00,71.4,63.8,29.86,ESE,113,0.0,0.0,77,0.00,,,0.00,WUHU216HW,2013-08-06 02:57:00,
2013-08-05 23:02:00,71.4,64.1,29.87,ESE,113,0.0,0.0,78,0.00,,,0.00,WUHU216HW,2013-08-06 03:02:00,
2013-08-05 23:07:00,71.4,64.1,29.86,ESE,113,0.0,0.0,78,0.00,,,0.00,WUHU216HW,2013-08-06 03:07:00,
2013-08-05 23:12:00,71.4,64.1,29.87,ESE,113,0.0,0.0,78,0.00,,,0.00,WUHU216HW,2013-08-06 03:12:00,
2013-08-05 23:17:00,71.4,64.1,29.86,ESE,113,0.0,0.0,78,0.00,,,0.00,WUHU216HW,2013-08-06 03:17:00,
2013-08-05 23:22:00,71.4,64.1,29.86,ESE,113,0.0,0.0,78,0.00,,,0.00,WUHU216HW,2013-08-06 03:22:00,
2013-08-05 23:27:00,71.4,64.1,29.86,ESE,113,0.0,0.0,78,0.00,,,0.00,WUHU216HW,2013-08-06 03:27:00,
2013-08-05 23:32:00,71.4,64.1,29.86,ESE,113,0.0,0.0,78,0.00,,,0.00,WUHU216HW,2013-08-06 03:32:00,
2013-08-05 23:37:00,71.4,64.1,29.86,ESE,113,0.0,0.0,78,0.00,,,0.00,WUHU216HW,2013-08-06 03:37:00,
2013-08-05 23:42:00,71.2,64.0,29.87,ESE,113,0.0,0.0,78,0.00,,,0.00,WUHU216HW,2013-08-06 03:42:00,
2013-08-05 23:47:00,71.2,64.0,29.87,ESE,113,0.0,0.0,78,0.00,,,0.00,WUHU216HW,2013-08-06 03:47:00,
2013-08-05 23:52:00,71.2,64.0,29.86,ESE,113,0.0,0.0,78,0.00,,,0.00,WUHU216HW,2013-08-06 03:52:00,
2013-08-05 23:57:00,71.2,64.0,29.86,ESE,113,0.0,0.0,78,0.00,,,0.00,WUHU216HW,2013-08-06 03:57:00,